AirNav   ProFlight Series 2 Aviation Headset
 
 844 users online  

01K Caldwell Municipal Airport
Caldwell, Kansas, USA

GOING TO CALDWELL?


FAA INFORMATION EFFECTIVE 18 JUNE 2020

Location

FAA Identifier: 01K
Lat/Long: 37-02-11.8000N 097-35-08.0000W
37-02.196667N 097-35.133333W
37.0366111,-97.5855556
(estimated)
Elevation: 1157 ft. / 352.7 m (surveyed)
Variation: 07E (1985)
From city: 1 mile E of CALDWELL, KS
Time zone: UTC -5 (UTC -6 during Standard Time)
Zip code: 67022

Airport Operations

Airport use: Open to the public
Activation date: 12/1945
Control tower: no
ARTCC: KANSAS CITY CENTER
FSS: WICHITA FLIGHT SERVICE STATION
NOTAMs facility: ICT (NOTAM-D service available)
Attendance: UNATNDD
Wind indicator: lighted
Segmented circle: no
Landing fee: no, LNDG FEE FOR COMMERCIAL USERS ONLY.

Airport Communications

CTAF: 122.9
WX AWOS-3 at EGT (20 nm NE): 118.875 (620-326-2470)

Nearby radio navigation aids

VOR radial/distance  VOR name  Freq  Var
PERr304/26.8PIONEER VORTAC113.2006E
ANYr098/29.0ANTHONY VORTAC112.9007E

Airport Services

Parking: tiedowns
Airframe service: NONE
Powerplant service: NONE
Bottled oxygen: NONE
Bulk oxygen: NONE

Runway Information

Runway 17/35

Dimensions: 2460 x 110 ft. / 750 x 34 m
Surface: turf, in good condition
RUNWAY 17  RUNWAY 35
Latitude: 37-02.400143N37-01.994667N
Longitude: 097-35.131850W097-35.134923W
Elevation: 1157.0 ft.1135.0 ft.
Traffic pattern: leftleft
Runway heading: 173 magnetic, 180 true353 magnetic, 000 true
Obstructions: 13 ft. road, 40 ft. from runway, 3:1 slope to clear
COUNTRY ROAD - TFC DURING HARVEST.
15 ft. road, 180 ft. from runway, 12:1 slope to clear
PLINE, HWY & PLINE SUPPORT 1/8 MILE S OF ROAD.

Airport Ownership and Management from official FAA records

Ownership: Publicly-owned
Owner: CITY OF CALDWELL
14 W. CENTRAL
CALDWELL, KS 67022
Phone 620-845-6514
Manager: MARC MARCRUM
14 W. CENTRAL
CALDWELL, KS 67022
Phone 620-845-6676

Airport Operational Statistics

Aircraft based on the field: 1
Single engine airplanes: 1
    
Aircraft operations: avg 75/month *
56% local general aviation
44% transient general aviation
* for 12-month period ending 27 August 2018

Additional Remarks

A30A-17 3 FT DITCH OFF END OF RWY.
18 IN BY 140 FT METAL CULVERT IN DITCH E OF RWY ON TWY.
WIND FARM 5 S OF ARPT.
FOR CD CTC WICHITA APCH AT 316-350-1520.

Instrument Procedures

There are no published instrument procedures at 01K.

Some nearby airports with instrument procedures:

O53 - Medford Municipal Airport (17 nm SW)
KEGT - Wellington Municipal Airport (20 nm NE)
KBKN - Blackwell-Tonkawa Municipal Airport (21 nm SE)
KANY - Anthony Municipal Airport (25 nm W)
8K2 - Harper Municipal Airport (26 nm NW)
 
Loc | Ops | Rwys | IFR | FBO | Links
Com | Nav | Svcs | Stats | Notes
Area around 01K (Caldwell Municipal Airport)
 
Road maps at: MapQuest Bing Google
 
Aerial photo
WARNING: Photo may not be current or correct
Aerial photo of 01K (Caldwell Municipal Airport)
Photo by Von Rothenberger
Photo taken 03-Sep-2010

Do you have a better or more recent aerial photo of Caldwell Municipal Airport that you would like to share? If so, please send us your photo.

 
Sectional chart

 
Airport distance calculator
Flying to Caldwell Municipal Airport? Find the distance to fly.

From to 01K

Sunrise and sunset
Times for 14-Jul-2020
 Local
(UTC-5)
 Zulu
(UTC)
Morning civil twilight05:5310:53
Sunrise06:2311:23
Sunset20:4901:49
Evening civil twilight21:1902:19

Current date and time
Zulu (UTC)  14-Jul-2020 12:31:01
Local (UTC-5)  14-Jul-2020 07:31:01
 
METAR
KBKN 
21nm SE 
141215Z AUTO 08009G14KT 10SM 26/26 A2985 RMK AO2
KWLD 
28nm E 
141154Z AUTO 11004KT 10SM FEW034 26/23 A2990 RMK AO2 PK WND 01029/1106 RAB11E24 SLP110 P0000 60000 70007 T02560228 10261 20244 51027
KPNC 
30nm SE 
141218Z AUTO 08006KT 10SM SCT013 BKN021 OVC025 26/23 A2987 RMK AO2 T02610228
KICT 
38nm N 
141153Z 09005KT 10SM R01L/P6000FT FEW012 SCT050 BKN100 OVC180 23/18 A2986 RMK CB DSIPTD
KIAB 
38nm NE 
141156Z AUTO 13009KT 10SM FEW160 SCT190 22/19 A2987 RMK AO2 RAE1058DZB1058E00 SLP103 P0000 60000 T02220186 10257 20217 50023 $
KWDG 
41nm S 
141151Z 07006KT 10SM SCT007 OVC120 26/25 A2981
TAF
KPNC 
30nm SE 
141120Z 1412/1512 15012KT P6SM BKN150 FM150700 17008G13KT P6SM BKN100 WS020/19035KT FM150900 07007KT P6SM OVC100
NOTAMs
Click for the latest NOTAMs
NOTAMs are issued by the DoD/FAA and will open in a separate window not controlled by AirNav.

 

 
 

Would you like to see your business listed on this page?

 If your business provides an interesting product or service to pilots, flight crews, aircraft, or users of the Caldwell Municipal Airport, you should consider listing it here.  To start the listing process, click on the button below
 
Add a business
 

Other Pages about Caldwell Municipal Airport

Update a link
 
Copyright © AirNav, LLC. All rights reserved. Privacy Policy  Contact